This is the latest recevied weather packets stored in our database for station/object K0SNA. If no packets are shown the sender has not sent any weather packets the latest 10 day(s).
| Time | Temp. | Humidity | Pressure | Rain* | Wind** | Luminosity | Snow |
|---|---|---|---|---|---|---|---|
| 1778020665 | 9.44° C | 41% | 1011.1 hPa | 0 mm | - | 121 W/m² | - |
| 1778020361 | 9.44° C | 40% | 1011 hPa | 0 mm | - | 150 W/m² | - |
| 1778020057 | 10° C | 39% | 1011.1 hPa | 0 mm | - | 157 W/m² | - |
| 1778019754 | 9.44° C | 41% | 1010.7 hPa | 0 mm | - | 224 W/m² | - |
| 1778019451 | 9.44° C | 41% | 1011 hPa | 0 mm | - | 123 W/m² | - |
| 1778019147 | 9.44° C | 40% | 1011 hPa | 0 mm | - | 168 W/m² | - |
| 1778018844 | 10° C | 41% | 1010.9 hPa | 0 mm | - | 171 W/m² | - |
| 1778018542 | 9.44° C | 40% | 1011 hPa | 0 mm | - | 196 W/m² | - |
| 1778018240 | 9.44° C | 40% | 1011 hPa | 0 mm | - | 144 W/m² | - |
| 1778017937 | 9.44° C | 39% | 1011.1 hPa | 0 mm | - | 153 W/m² | - |
| 1778017635 | 9.44° C | 39% | 1011.1 hPa | 0 mm | - | 151 W/m² | - |
| 1778017332 | 9.44° C | 39% | 1011.2 hPa | 0 mm | - | 125 W/m² | - |
| 1778017030 | 9.44° C | 40% | 1011 hPa | 0 mm | - | 177 W/m² | - |
| 1778016727 | 10° C | 39% | 1011.1 hPa | 0 mm | - | 153 W/m² | - |
| 1778016422 | 9.44° C | 40% | 1011.3 hPa | 0 mm | - | 175 W/m² | - |
| 1778016120 | 10° C | 40% | 1011 hPa | 0 mm | - | 208 W/m² | - |
| 1778015817 | 10° C | 41% | 1011.2 hPa | 0 mm | - | 119 W/m² | - |
| 1778015514 | 10° C | 40% | 1011 hPa | 0 mm | - | 122 W/m² | - |
| 1778015211 | 10° C | 40% | 1011.2 hPa | 0 mm | - | 172 W/m² | - |
| 1778014908 | 10° C | 39% | 1011.1 hPa | 0 mm | - | 245 W/m² | - |
| 1778014605 | 10° C | 40% | 1011.3 hPa | 0 mm | - | 270 W/m² | - |
| 1778014303 | 9.44° C | 40% | 1011.3 hPa | 0 mm | - | 183 W/m² | - |
| 1778013999 | 10° C | 39% | 1010.9 hPa | 0 mm | - | 141 W/m² | - |
| 1778013698 | 10° C | 40% | 1011.3 hPa | 0 mm | - | 222 W/m² | - |
| 1778013394 | 10° C | 40% | 1011.2 hPa | 0 mm | - | 211 W/m² | - |
* Rain latest hour (hover to see other rain measurements)
** Current wind speed in m/s (hover to see current wind gust speed)